Home   Weather   Salt Lake City   Past weeks

Flag for USA Past Weather in Salt Lake City, Utah, USA — Yesterday and Last 2 Weeks

Now
28 °F

Passing clouds.


Feels Like: 17 °F
Forecast: 26 / 39 °F
Wind: 13 mph from Southeast

Location: Salt Lake City International Airport

Current Time: Jan 22, 2017 at 3:30:36 am

Latest Report: Jan 22, 2017 at 2:54 am


Visibility: 10 mi

Pressure: 30.01 "Hg (25.44 "Hg at 1312m altitude)

Humidity: 85%

Dew Point: 24 °F

Location of Salt Lake CityLocation

Past Weather in Salt Lake City — Graph

°F

Salt Lake City Temperature Yesterday

Maximum temperature yesterday: 36 °F (at 12:54 am)
Minimum temperature yesterday: 31 °F (at 9:54 am)
Average temperature yesterday: 33 °F

High & Low Weather Summary for the Past Weeks

 TemperatureHumidityPressure
High50 °F (Jan 8, 10:54 pm)100% (Jan 12, 1:13 am)30.60 "Hg (Jan 12, 1:13 am)
Low-5 °F (Jan 7, 2:54 am)51% (Jan 10, 3:54 pm)29.24 "Hg (Jan 21, 4:54 am)
Average31 °F83%29.99 "Hg
* Reported Jan 7 1:54 am — Jan 22 1:54 am, Salt Lake City, Weather by CustomWeather, © 2017

Note: Actual official high and low records may vary slightly from our data, if they occured in-between our weather recording intervals... More about our weather records

Advertising

Salt Lake City Weather History for the Previous 24 Hours

Scroll right to see more
 ConditionsComfort  
Time TempWeatherWind HumidityBarometerVisibility
1:54 am
Sun, Jan 22
28 °FPassing clouds.10 mph85%30.01 "Hg10 mi
12:54 am29 °FPassing clouds.9 mph85%29.99 "Hg10 mi
11:54 pm
Sat, Jan 21
31 °FPassing clouds.9 mph85%29.98 "Hg10 mi
10:54 pm32 °FPassing clouds.9 mph82%29.96 "Hg10 mi
9:54 pm32 °FPartly cloudy.6 mph85%29.94 "Hg9 mi
8:54 pm31 °FPassing clouds.5 mph89%29.91 "Hg10 mi
7:54 pm33 °FPartly cloudy.3 mph85%29.88 "Hg10 mi
6:54 pm32 °FPassing clouds.3 mph85%29.84 "Hg10 mi
5:54 pm34 °FPassing clouds.5 mph82%29.80 "Hg10 mi
4:54 pm35 °FPartly sunny.No wind82%29.77 "Hg10 mi
3:54 pm35 °FPartly sunny.6 mph85%29.73 "Hg10 mi
2:54 pm35 °FPartly sunny.No wind82%29.68 "Hg10 mi
1:54 pm34 °FOvercast.No wind92%29.63 "Hg10 mi
1:02 pm34 °FFog.6 mph85%29.59 "Hg5 mi
12:54 pm34 °FLight snow. Fog.7 mph88%29.59 "Hg4 mi
12:31 pm33 °FLight snow. Fog.6 mph92%29.58 "Hg2 mi
11:54 am32 °FLight snow. Ice fog.12 mph92%29.57 "Hg1 mi
11:01 am32 °FSnow. Fog.13 mph96%29.53 "Hg1 mi
10:43 am32 °FSnow. Fog.12 mph96%29.51 "Hg1 mi
10:32 am32 °FSnow. Fog.13 mph96%29.50 "Hg0 mi
10:21 am32 °FHeavy snow. Fog.14 mph92%29.49 "Hg0 mi
9:54 am31 °FSnow. Ice fog.9 mph96%29.48 "Hg1 mi
9:33 am32 °FHeavy snow. Fog.13 mph92%29.45 "Hg0 mi
8:54 am32 °FSnow. Fog.8 mph96%29.42 "Hg1 mi
8:39 am32 °FSnow. Fog.8 mph96%29.40 "Hg1 mi
8:03 am33 °FLight snow. Fog.8 mph92%29.37 "Hg1 mi
7:54 am33 °FLight snow. Fog.6 mph96%29.36 "Hg1 mi
6:54 am33 °FLight snow. Fog.No wind96%29.32 "Hg1 mi
5:54 am33 °FSnow. Fog.3 mph96%29.27 "Hg1 mi
5:32 am33 °FLight snow. Fog.No wind96%29.28 "Hg1 mi
4:54 am33 °FLight snow. Fog.No wind96%29.24 "Hg1 mi
4:42 am33 °FLight snow. Fog.No wind96%29.27 "Hg2 mi
4:33 am33 °FLight snow. Fog.No wind96%29.27 "Hg2 mi
4:11 am33 °FLight snow. Fog.No wind96%29.27 "Hg3 mi
4:02 am33 °FLight snow. Fog.No wind96%29.27 "Hg2 mi
3:54 am33 °FLight snow. Fog.No wind96%29.25 "Hg3 mi
3:34 am34 °FLight snow. Mostly cloudy.5 mph92%29.27 "Hg9 mi
Weather by CustomWeather, © 2017

See weather overviewHow to use our weather pages